FW3572 Weather Reports


time (UTC)temp
F
wind
direction
speed
knots
gust
knots
rain 1hr
in
rain 24hr
in
rain mn
in
humidity
%
barometer
mb
20260902040057 80 329 0.0 2.6 0.00 0.01 0.00 100 1016.9
20260902035556 80 355 0.0 0.0 0.00 0.01 0.00 100 1017.0
20260902035055 80 355 0.0 0.0 0.00 0.01 0.00 100 1017.1
20260902034557 80 355 0.0 0.0 0.00 0.01 0.01 100 1017.2
20260902034055 80 355 0.0 0.0 0.00 0.01 0.01 100 1017.2
20260902033556 80 355 0.0 0.0 0.00 0.01 0.01 100 1017.3
20260902033056 80 355 0.0 0.0 0.00 0.01 0.01 100 1017.4
20260902032555 80 355 0.0 0.0 0.00 0.01 0.01 100 1017.2
20260902032054 80 355 0.0 0.0 0.00 0.01 0.01 100 1017.2
20260902031605 80 355 0.0 0.0 0.00 0.01 0.01 100 1017.3
20260902031054 80 355 0.0 0.0 0.00 0.01 0.01 100 1017.4
20260902030554 80 355 0.0 0.0 0.00 0.01 0.01 100 1017.5
20260902030053 80 355 0.0 1.7 0.00 0.01 0.01 100 1017.5
20260902025553 80 355 0.0 1.7 0.00 0.01 0.01 100 1017.6
20260902025054 80 355 0.0 0.0 0.00 0.01 0.01 100 1017.5
20260902024558 80 355 0.0 1.7 0.00 0.01 0.01 100 1017.5
20260902024053 80 355 0.0 1.7 0.00 0.01 0.01 100 1017.6
20260902023552 80 355 0.0 0.0 0.00 0.01 0.01 100 1017.6
20260902023055 80 355 0.0 0.9 0.00 0.01 0.01 100 1017.6
20260902022552 80 355 0.0 0.9 0.00 0.01 0.01 100 1017.6
20260902022051 80 355 0.0 0.0 0.00 0.01 0.01 100 1017.6
20260902021606 80 355 0.0 0.9 0.00 0.01 0.01 100 1017.7
20260902021055 80 355 0.0 0.9 0.00 0.01 0.01 100 1017.5
20260902020552 80 355 0.0 0.0 0.00 0.01 0.01 100 1017.4
20260902015554 80 355 0.0 0.9 0.00 0.01 0.01 100 1017.4
20260902015053 80 355 0.0 0.0 0.00 0.01 0.01 100 1017.4
20260902014551 80 355 0.0 0.9 0.00 0.01 0.01 100 1017.3
20260902014051 80 355 0.0 0.9 0.00 0.01 0.01 100 1017.4
20260902013551 80 355 0.0 1.7 0.00 0.01 0.01 100 1017.4
20260902013051 80 355 0.0 2.6 0.00 0.01 0.01 100 1017.4
20260902012550 80 355 0.0 2.6 0.00 0.01 0.01 100 1017.3
20260902012050 80 355 0.9 2.6 0.00 0.01 0.01 100 1017.3
20260902011550 80 355 0.0 2.6 0.00 0.01 0.01 100 1017.1
20260902011050 80 355 0.9 2.6 0.00 0.01 0.01 100 1017.0
20260902010549 80 347 0.0 2.6 0.00 0.01 0.01 100 1017.0
20260902010049 80 345 0.0 1.7 0.00 0.01 0.01 100 1016.9
20260902005549 80 334 0.0 2.6 0.00 0.01 0.01 100 1016.9
20260902005050 80 327 0.0 3.5 0.00 0.01 0.01 100 1016.8
20260902004549 80 360 0.0 3.5 0.00 0.01 0.01 100 1016.8
20260902004048 80 360 0.9 4.3 0.00 0.01 0.01 100 1016.8
20260902003547 80 355 1.7 4.3 0.00 0.01 0.01 100 1016.9
20260902003048 81 346 0.9 3.5 0.00 0.01 0.01 100 1017.0
20260902002547 81 360 1.7 3.5 0.00 0.01 0.01 100 1017.0
20260902002050 82 323 0.0 3.5 0.00 0.01 0.01 100 1017.0
20260902001550 82 355 0.9 2.6 0.00 0.01 0.01 100 1017.1
20260902001048 82 325 0.9 2.6 0.00 0.01 0.01 100 1017.1
20260902000550 82 134 0.0 0.9 0.00 0.01 0.01 100 1017.0
20260902000047 82 134 0.0 0.9 0.00 0.01 0.01 100 1017.0
20260901235547 82 134 0.0 0.9 0.00 0.01 0.01 100 1017.0
20260901235045 82 134 0.0 0.9 0.00 0.01 0.01 100 1017.0
20260901234548 81 134 0.0 0.0 0.00 0.01 0.01 100 1017.0
20260901234047 81 134 0.0 0.9 0.00 0.01 0.01 100 1016.9
20260901233546 81 134 0.0 0.9 0.00 0.01 0.01 100 1016.9
20260901233049 82 134 0.0 0.9 0.00 0.01 0.01 100 1016.9
20260901232545 81 132 0.0 3.5 0.00 0.01 0.01 100 1016.9
20260901232045 81 132 0.9 3.5 0.00 0.01 0.01 100 1016.9
20260901231546 82 133 0.9 3.5 0.00 0.01 0.01 100 1016.8
20260901231045 82 132 1.7 5.2 0.00 0.01 0.01 100 1016.9
20260901230545 82 134 1.7 5.2 0.00 0.01 0.01 100 1016.9
20260901230100 82 130 2.6 5.2 0.00 0.01 0.01 100 1016.7
20260901225544 82 123 0.0 7.8 0.00 0.01 0.01 100 1016.6
20260901225044 83 106 0.9 6.1 0.00 0.01 0.01 100 1016.7
20260901224545 83 119 1.7 6.1 0.00 0.01 0.01 100 1016.7
20260901224044 83 128 0.0 5.2 0.00 0.01 0.01 100 1016.6
20260901223544 84 57 0.0 3.5 0.00 0.01 0.01 100 1016.6
20260901223053 84 30 0.9 3.5 0.00 0.01 0.01 100 1016.6
20260901222543 84 9 0.0 4.3 0.00 0.01 0.01 100 1016.6
20260901222046 84 5 0.0 4.3 0.00 0.01 0.01 100 1016.7
20260901221544 84 50 0.9 4.3 0.00 0.01 0.01 100 1016.7
20260901221043 84 360 0.9 3.5 0.00 0.01 0.01 100 1016.7
20260901220542 84 110 0.0 3.5 0.00 0.01 0.01 100 1016.7
20260901220104 84 63 0.0 4.3 0.00 0.01 0.01 100 1016.7
20260901215543 84 46 0.0 7.0 0.00 0.01 0.01 100 1016.5
20260901215043 84 107 0.9 7.0 0.00 0.01 0.01 100 1016.5
20260901214541 84 92 0.9 6.1 0.00 0.01 0.01 100 1016.4
20260901214044 85 31 1.7 10.4 0.00 0.01 0.01 100 1016.3
20260901213543 85 360 2.6 10.4 0.00 0.01 0.01 100 1016.2
20260901213046 85 360 3.5 9.6 0.00 0.01 0.01 100 1016.2
20260901212541 85 16 3.5 8.7 0.00 0.01 0.01 100 1016.2
20260901212040 85 360 0.9 8.7 0.00 0.01 0.01 100 1016.2
20260901211540 86 45 3.5 8.7 0.00 0.01 0.01 100 1016.2
20260901211041 86 341 0.9 7.8 0.00 0.01 0.01 100 1016.2
20260901210539 86 347 1.7 7.0 0.00 0.01 0.01 100 1016.3
20260901210039 86 5 0.9 7.8 0.00 0.01 0.01 100 1016.4
20260901205539 86 339 2.6 7.8 0.00 0.01 0.01 100 1016.4
20260901205039 86 21 0.9 8.7 0.00 0.01 0.01 100 1016.2
20260901204541 87 101 2.6 8.7 0.00 0.02 0.01 100 1016.2
20260901204041 88 36 3.5 9.6 0.00 0.02 0.01 100 1016.2
20260901203537 88 9 1.7 9.6 0.00 0.02 0.01 100 1016.2
20260901203039 88 5 3.5 9.6 0.00 0.02 0.01 100 1016.3
20260901202533 88 11 2.6 10.4 0.00 0.02 0.01 100 1016.4
20260901202032 88 24 4.3 10.4 0.00 0.02 0.01 100 1016.3
20260901201531 88 33 2.6 9.6 0.00 0.02 0.01 100 1016.3
20260901201030 87 23 1.7 7.0 0.00 0.02 0.01 100 1016.4
20260901200530 86 82 0.0 7.0 0.00 0.02 0.01 100 1016.5
20260901200029 86 12 3.5 8.7 0.00 0.02 0.01 100 1016.5
20260901195529 86 15 1.7 9.6 0.00 0.02 0.01 100 1016.7
20260901195033 87 30 4.3 9.6 0.00 0.02 0.01 100 1016.8
20260901194533 88 360 2.6 7.8 0.00 0.02 0.01 100 1016.8
20260901194028 87 349 0.9 7.8 0.00 0.02 0.01 100 1016.9
20260901193528 87 28 2.6 10.4 0.00 0.02 0.01 100 1016.7
20260901193032 88 342 3.5 10.4 0.00 0.02 0.01 100 1016.8
20260901192525 89 47 3.5 9.6 0.00 0.02 0.01 100 1016.8
20260901192023 88 28 3.5 9.6 0.00 0.02 0.01 100 1016.7
20260901191523 87 346 3.5 8.7 0.00 0.02 0.01 100 1016.8
20260901191024 87 355 2.6 8.7 0.00 0.02 0.01 100 1016.8
20260901190526 87 53 1.7 10.4 0.00 0.02 0.01 100 1017.0
20260901190023 87 324 4.3 10.4 0.00 0.02 0.01 100 1016.8
20260901185523 87 77 1.7 8.7 0.00 0.02 0.01 100 1016.9
20260901185022 87 17 4.3 8.7 0.00 0.02 0.01 100 1016.9
20260901184538 88 261 3.5 9.6 0.00 0.02 0.01 100 1017.0
20260901184025 88 5 3.5 10.4 0.00 0.02 0.01 100 1017.1
20260901183523 90 331 4.3 10.4 0.00 0.02 0.01 100 1017.1
20260901183020 90 45 3.5 9.6 0.00 0.02 0.01 100 1017.2
20260901182521 90 28 2.6 10.4 0.00 0.02 0.01 100 1017.3
20260901182017 90 9 2.6 10.4 0.00 0.02 0.01 100 1017.5
20260901181526 90 38 1.7 13.9 0.00 0.02 0.01 100 1017.6
20260901181016 89 17 5.2 13.9 0.00 0.02 0.01 100 1017.6
20260901180516 89 9 3.5 10.4 0.00 0.02 0.01 100 1017.6
20260901180017 90 5 3.5 10.4 0.00 0.02 0.01 100 1017.6
20260901175515 90 26 4.3 10.4 0.00 0.02 0.01 100 1017.4
20260901175013 89 227 3.5 12.2 0.00 0.02 0.01 100 1017.4
20260901174534 89 341 6.1 14.8 0.00 0.02 0.01 100 1017.4
20260901174010 89 17 4.3 14.8 0.00 0.02 0.01 100 1017.3
20260901173509 88 63 6.1 13.0 0.00 0.02 0.01 100 1017.4
20260901173007 89 29 4.3 9.6 0.00 0.02 0.01 100 1017.6
20260901172510 89 107 0.9 8.7 0.00 0.02 0.01 100 1017.8
20260901172004 89 79 0.9 8.7 0.00 0.02 0.01 100 1017.8
20260901171502 89 126 2.6 11.3 0.00 0.02 0.01 100 1018.0
20260901171001 89 67 3.5 11.3 0.00 0.02 0.01 100 1018.0
20260901170600 89 360 3.5 10.4 0.00 0.02 0.01 100 1018.1
20260901170101 89 11 5.2 10.4 0.00 0.02 0.01 100 1018.1
20260901165556 89 56 3.5 10.4 0.00 0.02 0.01 100 1018.1
20260901165058 89 102 1.7 11.3 0.00 0.02 0.01 100 1017.9
20260901164556 89 355 4.3 11.3 0.00 0.02 0.01 100 1018.0
20260901164054 89 347 5.2 11.3 0.00 0.02 0.01 100 1018.1
20260901163551 89 112 0.9 7.8 0.00 0.02 0.01 100 1018.1
20260901163049 89 21 1.7 8.7 0.00 0.02 0.01 100 1018.1
20260901162548 89 9 2.6 8.7 0.00 0.02 0.01 100 1018.1
20260901162047 88 346 2.6 7.8 0.00 0.02 0.01 100 1018.3
20260901161602 89 39 2.6 8.7 0.00 0.02 0.01 100 1018.2
20260901161048 89 336 4.3 8.7 0.00 0.02 0.01 100 1018.2
20260901160543 89 38 1.7 8.7 0.00 0.02 0.01 100 1018.3
20260901160104 88 36 3.5 9.6 0.00 0.02 0.01 100 1018.3
20260901155543 88 50 2.6 9.6 0.00 0.02 0.01 100 1018.3
20260901155043 89 325 3.5 9.6 0.00 0.02 0.01 100 1018.3
20260901154541 89 319 1.7 10.4 0.00 0.02 0.01 100 1018.2
20260901154040 88 17 3.5 10.4 0.00 0.02 0.01 100 1018.3
20260901153539 89 31 4.3 10.4 0.00 0.02 0.01 100 1018.3
20260901153037 88 58 2.6 7.8 0.00 0.02 0.01 100 1018.4
20260901152535 88 39 3.5 9.6 0.00 0.02 0.01 100 1018.5
20260901152034 88 44 2.6 9.6 0.00 0.02 0.01 100 1018.5
20260901151532 88 138 0.9 7.0 0.00 0.02 0.01 100 1018.5
20260901151031 88 40 2.6 7.8 0.00 0.02 0.01 100 1018.4
20260901150531 87 5 2.6 9.6 0.00 0.02 0.01 100 1018.5
20260901150028 88 360 4.3 9.6 0.00 0.02 0.01 100 1018.4
20260901145526 88 360 2.6 7.8 0.00 0.02 0.01 100 1018.4
20260901145025 88 5 1.7 7.0 0.00 0.02 0.01 100 1018.3
20260901144523 87 355 0.9 7.0 0.00 0.02 0.01 100 1018.3
20260901144021 87 75 1.7 7.0 0.00 0.02 0.01 100 1018.3
20260901143520 87 28 1.7 7.8 0.00 0.02 0.01 100 1018.3
20260901143021 87 346 0.9 7.8 0.00 0.02 0.01 100 1018.1
20260901142518 87 22 0.9 7.0 0.00 0.02 0.01 100 1018.1
20260901142016 87 323 1.7 7.8 0.00 0.02 0.01 100 1018.1
20260901141514 86 340 2.6 7.8 0.00 0.02 0.01 100 1018.0
20260901141016 85 12 1.7 7.0 0.00 0.02 0.01 100 1017.9
20260901140513 85 360 0.9 7.8 0.00 0.02 0.01 100 1017.9
20260901140012 85 5 2.6 7.8 0.00 0.02 0.01 100 1018.0
20260901135513 85 52 1.7 5.2 0.00 0.02 0.01 100 1018.0
20260901135013 85 10 0.9 5.2 0.00 0.02 0.01 100 1017.9
20260901134513 85 11 0.9 5.2 0.00 0.02 0.01 100 1018.0
20260901134011 85 344 1.7 5.2 0.00 0.02 0.01 100 1018.0
20260901133507 85 16 1.7 5.2 0.00 0.02 0.01 100 1018.0
20260901133006 85 19 1.7 5.2 0.00 0.02 0.01 100 1017.9
20260901132506 84 339 2.6 5.2 0.00 0.02 0.01 100 1017.9
20260901132005 84 336 0.9 5.2 0.00 0.02 0.01 100 1017.9
20260901131503 84 355 1.7 6.1 0.00 0.02 0.01 100 1018.0
20260901131003 84 5 1.7 5.2 0.00 0.02 0.01 100 1018.0
20260901130503 84 11 0.0 4.3 0.00 0.02 0.01 100 1018.0
20260901130001 83 329 0.9 4.3 0.00 0.02 0.01 100 1017.9
20260901125600 83 43 0.0 3.5 0.00 0.02 0.01 100 1017.8
20260901125059 83 340 0.0 4.3 0.00 0.02 0.01 100 1017.7
20260901124605 82 360 0.0 4.3 0.00 0.02 0.01 100 1017.8
20260901124057 82 355 0.0 0.0 0.00 0.02 0.01 100 1017.7
20260901123558 81 336 0.0 0.0 0.00 0.02 0.01 100 1017.8
20260901123114 81 342 0.0 0.0 0.00 0.02 0.01 100 1017.8
20260901122558 80 343 0.0 0.0 0.00 0.02 0.01 100 1017.7
20260901122101 80 342 0.0 0.0 0.00 0.02 0.01 100 1017.7
20260901121559 80 344 0.0 0.0 0.00 0.02 0.01 100 1017.7
20260901121057 79 343 0.0 1.7 0.00 0.02 0.01 100 1017.6
20260901120557 78 345 0.0 4.3 0.00 0.02 0.01 100 1017.6
20260901120101 78 346 0.0 4.3 0.00 0.02 0.01 100 1017.6
20260901115557 78 337 0.0 2.6 0.00 0.02 0.01 100 1017.5
20260901115056 78 338 0.9 2.6 0.00 0.02 0.01 100 1017.4
20260901114603 78 325 0.0 0.0 0.00 0.02 0.01 100 1017.4
20260901114055 78 313 0.0 0.0 0.00 0.02 0.01 100 1017.4
20260901113557 78 313 0.0 0.0 0.00 0.02 0.01 100 1017.2
20260901113101 78 313 0.0 0.0 0.00 0.02 0.01 100 1017.1
20260901112556 77 313 0.0 0.0 0.00 0.02 0.01 100 1017.0
20260901112054 77 314 0.0 0.0 0.00 0.02 0.01 100 1017.0
20260901111606 77 314 0.0 0.0 0.00 0.02 0.01 100 1017.0
20260901111057 77 314 0.0 0.0 0.00 0.02 0.01 100 1016.9
20260901110553 77 314 0.0 0.0 0.00 0.02 0.01 100 1016.8
20260901110054 77 314 0.0 0.0 0.00 0.02 0.01 100 1016.8
20260901105553 77 315 0.0 0.0 0.00 0.02 0.01 100 1016.7
20260901105053 77 315 0.0 0.0 0.00 0.02 0.01 100 1016.6
20260901104553 77 315 0.0 0.0 0.00 0.02 0.01 100 1016.7
20260901104053 77 315 0.0 0.0 0.00 0.02 0.01 100 1016.7
20260901103553 77 315 0.0 0.0 0.00 0.02 0.01 100 1016.7
20260901103052 77 315 0.0 0.0 0.00 0.02 0.01 100 1016.8
20260901102552 78 315 0.0 0.0 0.00 0.02 0.01 100 1016.7
20260901102053 78 315 0.0 0.0 0.00 0.02 0.01 100 1016.8
20260901101553 78 315 0.0 0.0 0.00 0.02 0.01 100 1016.7
20260901101051 78 315 0.0 0.0 0.00 0.02 0.01 100 1016.7
20260901100552 78 315 0.0 0.0 0.00 0.02 0.01 100 1016.6
20260901100055 78 315 0.0 0.0 0.00 0.02 0.01 100 1016.7
20260901095550 78 315 0.0 0.0 0.00 0.02 0.01 100 1016.7
20260901095052 78 315 0.0 0.0 0.00 0.02 0.01 100 1016.7
20260901094550 78 315 0.0 0.0 0.00 0.02 0.01 100 1016.7
20260901094051 78 315 0.0 0.0 0.00 0.02 0.01 100 1016.6
20260901093551 78 316 0.0 0.0 0.00 0.02 0.01 100 1016.7
20260901093052 78 316 0.0 0.0 0.00 0.02 0.01 100 1016.6
20260901092549 78 312 0.0 0.0 0.00 0.02 0.01 100 1016.6
20260901092049 78 312 0.0 0.0 0.00 0.02 0.01 100 1016.7
20260901091549 78 312 0.0 0.0 0.00 0.02 0.01 100 1016.6
20260901091049 78 312 0.0 0.0 0.00 0.02 0.01 100 1016.6
20260901090552 78 311 0.0 0.0 0.00 0.02 0.01 100 1016.7
20260901090048 78 309 0.0 0.0 0.00 0.02 0.01 100 1016.6
20260901085548 78 309 0.0 0.0 0.00 0.02 0.01 100 1016.7
20260901085048 78 309 0.0 0.0 0.00 0.02 0.01 100 1016.7
20260901084548 78 309 0.0 0.0 0.00 0.02 0.01 100 1016.5
20260901084052 78 309 0.0 0.0 0.00 0.02 0.01 100 1016.6
20260901083547 78 308 0.0 0.0 0.00 0.02 0.01 100 1016.5
20260901083048 78 309 0.0 0.0 0.00 0.02 0.01 100 1016.6
20260901082547 78 309 0.0 0.0 0.00 0.02 0.01 100 1016.6
20260901082047 78 210 0.0 0.0 0.00 0.02 0.01 100 1016.6
20260901081547 78 210 0.0 0.0 0.00 0.02 0.01 100 1016.5
20260901081046 78 210 0.0 0.0 0.00 0.02 0.01 100 1016.6
20260901080545 79 210 0.0 0.0 0.00 0.02 0.01 100 1016.6
20260901080046 79 210 0.0 0.0 0.00 0.02 0.01 100 1016.6
20260901075545 79 210 0.0 0.0 0.00 0.02 0.01 100 1016.6
20260901075043 78 210 0.0 0.0 0.00 0.02 0.01 100 1016.7
20260901074548 78 210 0.0 0.0 0.00 0.02 0.01 100 1016.7
20260901074045 78 210 0.0 0.0 0.00 0.02 0.01 100 1016.9
20260901073543 78 210 0.0 0.0 0.00 0.02 0.01 100 1016.8
20260901073043 78 210 0.0 0.0 0.00 0.02 0.01 100 1017.0
20260901072544 78 210 0.0 0.0 0.00 0.02 0.01 100 1016.9
20260901072044 78 210 0.0 0.0 0.00 0.02 0.01 100 1017.1
20260901071542 78 210 0.0 0.0 0.00 0.02 0.01 100 1017.0
20260901071042 78 210 0.0 0.0 0.00 0.02 0.01 100 1017.0
20260901070540 79 211 0.0 0.0 0.00 0.02 0.01 100 1017.1
20260901070040 79 213 0.0 0.0 0.00 0.02 0.01 100 1017.1
20260901065540 79 213 0.0 0.0 0.00 0.02 0.01 100 1017.2
20260901065040 79 213 0.0 0.0 0.00 0.02 0.01 100 1017.2
20260901064539 79 212 0.0 0.0 0.00 0.02 0.01 100 1017.2
20260901064043 79 211 0.0 0.0 0.00 0.02 0.01 100 1017.2
20260901063539 79 199 0.0 2.6 0.00 0.02 0.01 100 1017.2
20260901063051 79 190 0.0 2.6 0.00 0.02 0.01 100 1017.4
20260901062539 79 178 0.0 0.0 0.00 0.02 0.01 100 1017.3
20260901062038 79 178 0.0 0.0 0.00 0.02 0.01 100 1017.3
20260901061545 79 178 0.0 0.0 0.00 0.02 0.01 100 1017.4
20260901061037 79 178 0.0 0.0 0.00 0.02 0.01 100 1017.5
20260901060538 79 178 0.0 0.0 0.00 0.02 0.01 100 1017.4
20260901060037 79 178 0.0 0.0 0.00 0.02 0.01 100 1017.4
20260901055536 78 178 0.0 0.0 0.00 0.02 0.01 100 1017.6
20260901055036 79 178 0.0 0.0 0.01 0.02 0.01 100 1017.6
20260901054537 78 178 0.0 0.0 0.01 0.02 0.01 100 1017.6
20260901054036 78 178 0.0 0.0 0.01 0.02 0.01 100 1017.7
20260901053539 78 178 0.0 0.0 0.01 0.02 0.01 100 1017.8
20260901053034 79 178 0.0 2.6 0.01 0.02 0.01 100 1017.8
20260901052532 78 178 0.0 3.5 0.01 0.02 0.01 100 1017.8
20260901052031 79 178 0.9 5.2 0.01 0.02 0.01 100 1017.9
20260901051537 79 179 1.7 7.0 0.01 0.02 0.01 100 1018.0
20260901051029 79 184 2.6 7.0 0.01 0.02 0.01 100 1018.1
20260901050528 80 152 3.5 7.0 0.01 0.02 0.01 100 1018.1
20260901050027 81 165 0.9 5.2 0.01 0.02 0.01 100 1018.1
20260901045530 81 165 1.7 8.7 0.01 0.02 0.01 100 1018.1
20260901045028 81 132 4.3 8.7 0.00 0.01 0.00 100 1018.1
20260901044524 82 146 0.0 0.0 0.00 0.01 0.00 100 1018.1
20260901044024 82 146 0.0 0.0 0.00 0.01 0.00 100 1018.2
20260901043523 82 146 0.0 0.0 0.00 0.01 0.00 100 1018.1
20260901043031 82 146 0.0 2.6 0.00 0.01 0.00 100 1018.1
20260901042524 82 146 0.0 2.6 0.00 0.01 0.00 100 1018.1
20260901042023 82 121 0.0 2.6 0.00 0.01 0.00 100 1018.1
20260901041522 82 116 0.0 0.0 0.00 0.01 0.00 100 1018.1
20260901041022 82 116 0.0 0.0 0.00 0.01 0.00 100 1018.2
20260901040527 82 116 0.0 0.0 0.00 0.01 0.00 100 1018.2